Погода в Позу-Алегри

Бразилия     22°13′56″S   45°56′22″W
темп.,
°C
ветер,
м/с
пор.,
м/с
влажн.,
%
обл.,
%
осадки,
мм/ч
давл.,
гПа
погр.,
м
26 февраля, пт
пт2600:00+16в119331 0.0 101323
03:00+15вюв119637 0.0 101123
06:00+15ююв019697 0.1 101223
09:00+20в248993 0.8 1014462
12:00+22св468394 1.3 1013816
15:00+22св358895 6.5 1011585
18:00+20св2493100 4.0 1012162
21:00+18всв1295100 5.3 101439
27 февраля, сб
сб2700:00+17ссв1195100 0.0 101423
03:00+16в1297100 0.0 101354
06:00+17вюв269899 0.2 1014358
09:00+18всв379699 0.5 1016603
12:00+18всв269499 0.5 1015554
15:00+21в258797 1.1 1013665
18:00+20всв259189 2.4 1013276
21:00+17ссв129469 2.5 101532
28 февраля, вс
вс2800:00+17в129579 0.0 101538
03:00+15в119671 0.1 101432
06:00+16в129584 0.0 101540
09:00+19всв149091 0.0 1016405
12:00+23св358286 1.0 1015912
15:00+23св358081 1.9 1012953
18:00+21в128890 0.4 101238
21:00+18в119387 0.9 101423
1 марта, пн
пн100:00+17всв119580 0.1 101424
03:00+16св119688 0.1 101323
06:00+15в119799 0.0 101423
09:00+20всв2490100 0.0 1015478
12:00+24св3471100 0.0 10141029
15:00+24св347889 0.8 1011785
18:00+22св238939 1.0 101157
21:00+18ссв019461 2.0 101423
2 марта, вт
вт200:00+17всв119691 0.1 101423
03:00+16в119778 0.1 101323
06:00+16всв119771 0.0 101526
09:00+20св238879 0.0 1017479
12:00+24св3572100 0.1 10151051
15:00+25ссв3469100 0.6 10131203
18:00+22св228340 0.3 101231
21:00+18сз019165 0.3 101523